Wetbulb
58.21 58.24 58.35 58.18 57.51 57.06 57.97 58.99 58.79 58.75 59.01 58.50 57.52 56.78 56.36 55.94 54.07 50.10 48.37 54.50 53.99 59.96 56.37 47.52 45.82 45.97 45.53 43.38 44.44 41.71 34.72 31.14 34.75 36.74 40.27 45.53 44.16 45.44 48.26 46.99 47.98 48.55 48.52 51.36 53.92
56.06 56.15 56.46 56.66 57.04 57.07 57.23 56.99 56.95 58.02 58.76 58.39 57.12 56.33 55.88 55.10 48.13 46.52 54.50 59.83 60.19 58.54 46.59 45.72 45.40 47.41 42.68 40.98 41.44 39.32 32.95 35.05 40.52 40.79 41.65 45.05 44.44 45.49 45.36 46.28 46.60 46.99 50.33 52.45 53.03
55.45 55.15 54.93 55.24 55.84 56.24 56.63 56.62 56.22 56.47 57.96 58.22 56.78 55.98 55.02 52.55 45.56 47.81 59.46 59.60 58.26 55.90 47.75 46.77 46.96 46.25 40.97 40.01 39.36 36.91 35.84 39.67 42.90 44.72 44.83 43.80 45.89 46.33 43.81 43.23 46.46 46.28 47.98 49.60 49.48
55.60 55.39 54.99 54.93 55.06 55.58 55.86 55.57 56.09 56.19 56.91 57.86 56.20 54.95 54.36 48.24 34.42 48.22 58.76 57.78 59.07 52.18 48.00 45.95 45.31 41.54 39.56 38.78 41.19 37.60 41.89 43.22 43.52 45.95 44.97 44.21 45.65 44.31 44.88 45.89 48.22 48.07 48.67 47.39 47.15
55.18 55.52 55.13 54.95 54.59 54.90 55.47 55.32 55.45 56.01 56.36 58.00 55.33 52.95 48.32 44.81 44.84 53.37 59.60 58.30 52.73 48.98 46.39 45.30 44.67 43.37 40.10 41.79 43.06 40.95 42.99 44.97 45.01 44.61 44.33 45.61 43.44 44.58 44.17 47.82 47.65 47.77 47.74 46.95 47.02
54.76 55.23 55.55 55.01 54.56 54.79 55.37 54.25 53.99 55.43 55.86 57.18 54.34 51.68 45.99 40.16 50.51 52.44 52.05 51.50 51.92 48.29 46.06 45.81 45.92 45.60 42.82 42.01 40.54 43.32 42.66 42.37 43.11 43.52 43.69 43.65 43.62 42.07 44.98 47.75 47.02 47.66 47.31 47.54 47.12
54.35 55.02 55.10 54.55 54.23 54.70 54.25 53.20 53.19 54.38 55.17 56.66 53.63 49.98 44.63 43.55 50.63 50.48 51.05 49.07 49.73 48.59 45.98 48.59 48.33 45.13 44.15 41.62 44.87 43.74 39.75 40.99 42.03 41.58 41.76 43.14 38.56 39.67 44.42 45.52 45.65 46.66 47.79 47.92 48.72
54.03 54.72 54.21 54.19 54.19 54.43 54.29 53.12 53.58 54.57 54.93 55.90 53.21 48.34 42.16 52.04 50.59 50.15 49.00 49.01 51.07 51.12 51.23 51.52 49.74 45.81 43.39 44.48 42.25 38.98 37.57 32.20 38.85 40.58 42.46 39.78 34.79 42.46 44.27 45.89 45.49 45.03 46.14 47.32 48.31
54.25 53.94 53.67 53.70 53.62 53.87 54.19 54.41 54.48 55.64 55.63 53.02 46.93 46.68 41.03 52.63 47.88 51.11 51.20 48.10 50.46 51.43 51.31 53.59 48.21 42.71 41.80 36.76 33.48 34.00 28.25 31.22 35.55 41.31 39.84 38.52 36.92 41.37 45.55 45.40 44.70 43.63 44.44 44.62 46.76
53.28 53.34 53.66 53.40 53.59 53.43 53.98 53.82 53.56 52.44 51.35 50.40 49.40 42.14 43.81 42.52 48.59 51.17 50.60 50.59 48.93 49.49 47.89 46.11 40.40 36.81 36.11 33.51 26.19 28.95 29.34 27.01 30.40 36.54 38.32 36.95 37.60 42.03 42.26 42.65 43.02 43.15 43.46 43.29 44.85
52.85 53.37 53.56 53.13 53.05 53.40 50.64 46.45 44.85 42.94 45.28 41.56 42.04 42.07 44.93 48.47 50.83 49.30 50.90 49.28 48.32 45.56 39.83 40.50 34.80 32.23 36.50 36.35 36.61 34.91 32.58 31.32 33.53 38.40 36.91 36.58 37.02 39.25 40.86 40.38 41.23 42.86 42.92 42.70 46.30
52.79 53.08 52.86 53.05 53.04 53.11 50.14 42.60 43.03 44.71 39.82 44.14 45.11 44.35 47.14 47.56 42.42 46.35 50.91 45.19 43.08 38.06 40.40 37.22 33.73 39.29 39.62 37.89 36.50 35.57 33.24 32.82 35.98 38.97 36.47 34.71 35.57 39.46 40.00 39.91 41.69 42.26 40.83 44.95 45.59
52.42 52.48 52.52 52.33 52.53 51.86 46.40 46.54 49.06 50.05 38.65 41.95 44.45 43.57 44.88 46.21 41.35 42.17 47.15 44.13 40.29 37.88 38.09 35.28 38.23 41.81 39.59 37.10 35.48 35.06 33.13 33.38 32.97 35.07 36.28 34.13 32.52 34.84 39.94 40.38 41.84 42.77 42.80 46.36 45.22
52.30 51.90 51.34 51.15 49.61 49.74 47.59 50.27 49.52 48.90 28.58 34.26 41.00 43.81 45.41 45.99 40.76 46.91 47.24 44.04 39.51 37.46 37.41 36.11 41.04 38.87 37.00 35.87 36.58 31.33 36.74 35.98 34.64 31.59 25.38 33.96 24.50 34.00 35.29 38.18 41.79 43.16 42.56 42.94 42.67
51.49 50.19 50.34 51.45 45.38 46.43 47.50 50.50 49.73 45.05 15.32 37.22 41.34 49.43 46.89 42.86 43.11 43.97 47.30 42.95 37.74 37.21 37.16 34.43 36.05 35.69 34.71 36.28 37.34 34.08 38.12 35.66 34.17 29.92 28.02 29.83 25.23 28.44 35.68 36.24 39.70 41.23 41.02 40.86 41.46
50.87 50.04 50.26 49.55 50.04 48.82 49.78 49.74 47.23 25.08 15.82 33.74 42.24 41.23 40.74 42.41 42.42 44.48 43.24 44.54 42.74 37.93 37.42 35.89 39.50 38.26 36.87 38.89 38.84 39.08 35.81 33.91 32.39 29.35 20.24 27.86 26.83 24.11 32.30 33.59 37.27 41.83 40.71 40.64 40.17
50.49 49.68 48.83 50.40 43.61 50.08 49.71 46.86 31.05 18.60 34.62 32.64 36.63 40.65 39.48 38.17 39.25 40.57 38.54 36.56 34.29 30.33 30.44 34.88 36.23 39.22 41.22 36.08 37.11 34.09 34.13 27.98 22.01 21.14 20.99 30.16 26.69 30.16 34.08 34.91 37.27 37.07 37.16 37.68 37.97
49.40 48.64 49.21 49.13 49.24 49.34 47.78 38.96 23.50 30.28 30.45 37.79 38.63 39.58 36.21 38.53 38.23 38.94 36.29 33.73 36.88 34.73 31.07 29.47 26.99 36.47 40.50 38.21 34.24 32.23 31.97 26.15 18.74 18.79 21.16 29.61 21.57 30.06 36.25 36.86 36.73 36.71 36.41 35.86 34.99
48.32 43.75 45.64 48.03 49.78 50.02 42.24 30.10 26.88 30.35 35.85 34.73 35.08 31.72 32.76 37.49 37.32 36.91 34.73 35.23 37.27 36.91 31.02 29.84 30.31 37.85 39.96 39.26 38.04 32.26 28.00 32.34 28.24 27.88 21.56 24.12 30.34 35.09 36.26 34.92 34.75 35.34 35.24 34.04 33.86
41.74 40.69 42.19 47.99 49.49 47.00 37.86 31.98 32.28 37.09 38.04 37.79 30.24 33.29 29.01 31.56 33.47 34.17 34.02 37.80 37.24 39.21 38.96 35.16 29.09 36.88 38.68 39.68 38.17 35.04 36.04 26.87 27.99 20.05 18.96 23.34 26.03 23.67 30.92 32.50 34.84 34.13 33.42 33.61 34.38
40.98 37.14 41.63 48.20 48.39 41.66 31.45 31.94 35.10 39.10 39.72 35.97 33.33 32.48 33.97 32.91 32.29 31.41 33.04 37.63 39.08 38.06 39.71 36.16 33.35 31.59 37.52 34.59 32.31 33.37 30.98 31.36 30.15 26.03 20.79 20.59 21.29 29.73 33.26 35.21 34.01 34.39 34.37 33.17 32.59
41.04 33.56 40.66 47.89 35.78 34.51 32.79 35.36 39.29 37.54 40.16 38.02 38.50 36.61 34.27 34.76 32.86 32.56 33.74 36.46 40.03 39.84 35.03 38.08 34.50 30.54 32.53 36.65 39.43 37.06 34.48 32.79 22.24 22.16 27.91 19.89 21.19 37.33 37.05 37.53 36.01 35.17 33.59 32.86 32.32
36.89 36.25 42.11 43.34 30.30 30.01 34.26 35.60 37.76 36.21 36.36 37.15 35.63 37.57 38.13 33.94 31.17 33.71 34.71 38.97 39.71 38.89 36.22 37.56 32.44 25.86 28.72 32.18 35.99 34.03 35.18 35.60 33.33 31.14 26.82 21.49 24.02 38.11 38.48 37.47 35.57 32.09 31.70 31.39 31.33
34.96 29.35 33.20 36.49 36.42 31.51 31.24 33.20 33.61 38.98 37.26 39.00 37.44 38.51 35.65 33.48 35.62 32.72 33.94 38.05 39.14 38.89 42.49 41.03 34.14 29.63 24.42 26.63 31.31 30.80 33.62 35.48 33.32 26.64 26.39 26.55 29.52 34.48 35.98 31.61 30.67 29.93 29.53 29.09 29.50
35.77 31.01 33.05 26.86 30.22 33.33 33.80 32.64 30.76 32.67 37.64 38.69 35.92 35.75 33.61 31.03 31.95 32.36 34.82 35.22 35.78 41.42 38.45 36.02 29.43 31.18 32.57 33.27 33.10 32.04 32.72 33.52 31.73 31.18 26.72 27.75 29.10 33.43 33.12 31.12 30.22 29.99 29.33 28.75 28.50
30.98 32.07 34.96 30.12 31.74 32.15 32.23 31.07 30.78 32.09 34.45 35.01 33.63 35.26 36.07 32.47 32.86 30.64 34.19 33.57 32.29 34.74 32.77 33.16 26.85 28.50 27.58 32.82 33.15 29.91 31.95 30.52 32.83 33.62 32.49 30.92 30.79 34.15 32.48 31.76 30.17 29.08 28.67 27.23 26.94
36.33 38.96 35.99 31.86 28.99 30.02 29.54 30.56 31.12 33.78 34.67 35.94 35.39 34.42 34.01 35.01 37.11 38.13 37.93 37.09 36.95 32.85 30.31 30.89 29.42 28.15 25.18 30.90 31.98 27.06 28.35 30.78 29.65 30.01 30.80 26.50 30.20 31.84 29.55 29.40 28.55 28.11 27.59 25.29 26.05
MSLP
1018.57 1018.68 1018.67 1018.78 1018.53 1018.54 1018.64 1018.48 1018.44 1018.27 1018.06 1018.03 1017.85 1017.62 1017.22 1016.90 1016.03 1015.47 1015.01 1013.04 1012.90 1012.77 1012.61 1012.62 1012.43 1012.44 1012.56 1012.81 1012.93 1013.50 1014.80 1015.28 1014.39 1013.37 1011.87 1010.95 1010.82 1010.13 1009.36 1008.97 1008.63 1007.94 1007.91 1007.68 1007.20
1018.61 1018.54 1018.71 1018.67 1018.49 1018.54 1018.55 1018.50 1018.30 1018.18 1017.97 1017.94 1017.75 1017.54 1017.05 1016.86 1016.08 1014.75 1013.16 1012.79 1012.89 1013.00 1012.82 1012.68 1012.63 1012.75 1012.89 1013.06 1013.36 1013.64 1014.47 1014.29 1013.34 1012.50 1011.89 1011.05 1011.00 1010.46 1009.68 1009.38 1008.71 1008.16 1007.51 1007.50 1007.27
1018.44 1018.53 1018.61 1018.64 1018.46 1018.45 1018.41 1018.48 1018.27 1018.06 1017.85 1017.79 1017.73 1017.49 1017.25 1016.87 1016.11 1013.51 1012.64 1013.15 1013.05 1013.23 1013.25 1012.99 1012.64 1012.82 1013.25 1013.13 1013.49 1013.68 1013.74 1013.35 1012.65 1012.13 1011.79 1011.48 1010.97 1010.56 1010.05 1009.55 1009.06 1008.72 1008.27 1007.63 1007.66
1018.20 1018.39 1018.52 1018.31 1018.44 1018.35 1018.40 1018.35 1018.16 1017.97 1017.69 1017.60 1017.72 1017.51 1017.46 1017.07 1015.65 1013.15 1012.85 1013.15 1013.44 1013.30 1013.30 1013.21 1012.89 1012.97 1013.32 1013.27 1013.37 1013.82 1013.53 1013.22 1012.71 1012.26 1012.00 1011.65 1011.01 1010.44 1010.05 1009.45 1008.87 1008.83 1008.63 1008.31 1007.83
1018.12 1018.26 1018.27 1018.19 1018.02 1018.29 1018.23 1018.25 1018.13 1018.02 1017.56 1017.43 1017.47 1017.64 1017.49 1017.14 1014.78 1013.01 1012.92 1013.03 1013.39 1013.48 1013.46 1013.36 1013.29 1012.94 1013.33 1013.46 1013.59 1013.71 1013.70 1013.45 1012.95 1012.29 1011.86 1011.32 1011.02 1010.47 1009.43 1008.81 1008.91 1008.81 1008.72 1008.47 1008.17
1018.04 1017.90 1018.01 1018.08 1018.03 1018.07 1018.01 1018.09 1018.04 1017.90 1017.56 1017.47 1017.55 1017.85 1017.72 1016.83 1013.28 1013.06 1013.09 1012.98 1013.44 1013.62 1013.55 1013.60 1013.36 1013.25 1013.40 1013.61 1013.91 1013.74 1013.68 1013.51 1013.07 1012.41 1011.76 1011.04 1010.55 1010.39 1009.37 1008.83 1008.74 1008.81 1008.73 1008.66 1008.54
1017.67 1017.84 1017.80 1017.82 1017.87 1017.95 1017.88 1017.81 1017.81 1017.67 1017.47 1017.46 1017.72 1017.93 1017.57 1014.79 1013.12 1013.46 1013.39 1013.63 1013.47 1013.82 1013.94 1013.59 1013.41 1013.47 1013.67 1013.85 1013.70 1013.86 1014.08 1013.76 1013.03 1012.36 1011.78 1010.98 1010.60 1009.77 1009.42 1009.48 1009.30 1008.97 1008.80 1008.72 1008.65
1017.44 1017.46 1017.60 1017.67 1017.64 1017.73 1017.83 1017.68 1017.52 1017.52 1017.31 1017.55 1017.84 1017.98 1016.63 1013.43 1013.11 1013.12 1013.00 1013.08 1013.11 1013.39 1014.05 1013.63 1013.69 1013.67 1013.80 1014.01 1014.34 1014.60 1014.72 1014.55 1013.24 1012.50 1011.68 1011.69 1010.22 1009.66 1009.71 1009.60 1009.64 1009.58 1009.45 1008.99 1008.53
1017.27 1017.31 1017.35 1017.48 1017.46 1017.45 1017.83 1017.29 1017.40 1017.18 1017.63 1017.77 1018.14 1018.20 1015.84 1013.34 1012.85 1011.80 1012.24 1012.73 1012.44 1012.88 1013.36 1013.56 1013.89 1014.01 1014.22 1014.84 1015.62 1015.60 1015.68 1015.18 1014.25 1012.82 1012.41 1012.32 1009.91 1010.02 1009.83 1010.10 1010.06 1009.69 1009.46 1009.51 1008.64
1016.95 1017.19 1017.14 1017.28 1017.25 1017.25 1017.54 1017.49 1017.45 1017.79 1018.11 1017.90 1018.06 1018.27 1014.83 1012.70 1011.74 1011.29 1011.89 1012.19 1012.39 1012.50 1013.20 1014.00 1014.59 1014.72 1014.82 1015.75 1016.00 1015.73 1015.99 1015.76 1015.04 1013.89 1013.06 1012.58 1010.20 1010.28 1010.64 1010.32 1010.23 1009.56 1009.56 1009.36 1009.09
1016.65 1016.81 1017.20 1017.08 1017.09 1017.00 1017.76 1018.11 1018.11 1018.03 1017.78 1016.68 1015.80 1015.04 1013.27 1012.36 1011.54 1010.96 1011.36 1012.15 1012.42 1012.70 1013.34 1013.96 1014.98 1014.74 1014.51 1015.10 1015.28 1015.34 1015.34 1015.73 1015.32 1014.47 1013.63 1012.53 1010.65 1009.86 1010.89 1010.44 1009.93 1009.24 1009.51 1009.41 1009.78
1016.37 1016.72 1016.81 1016.74 1016.89 1016.98 1017.14 1017.59 1016.82 1016.68 1016.14 1014.99 1014.83 1014.58 1013.02 1012.96 1012.77 1011.05 1011.05 1011.93 1012.43 1012.98 1013.45 1014.39 1014.21 1014.28 1014.59 1015.27 1015.59 1015.54 1015.37 1015.15 1015.08 1014.31 1014.03 1012.87 1010.58 1010.35 1010.81 1010.27 1009.62 1008.99 1009.56 1009.93 1010.50
1016.35 1016.51 1016.73 1016.68 1016.50 1017.09 1017.13 1016.56 1016.32 1016.03 1016.15 1013.80 1013.11 1013.39 1012.81 1012.86 1012.40 1011.21 1011.00 1011.42 1012.02 1012.88 1013.34 1013.86 1013.65 1013.31 1014.37 1014.86 1015.35 1015.24 1015.41 1015.18 1014.81 1014.78 1014.09 1013.69 1011.35 1010.36 1010.65 1010.14 1009.60 1009.30 1009.54 1010.04 1010.97
1016.19 1016.32 1016.50 1016.56 1016.95 1016.94 1016.43 1015.88 1016.29 1016.34 1016.10 1012.92 1012.07 1011.31 1011.66 1011.74 1011.42 1009.89 1010.38 1011.23 1012.05 1012.40 1013.35 1013.98 1013.54 1013.57 1013.95 1014.45 1014.82 1015.11 1014.97 1015.15 1015.08 1015.06 1015.42 1014.90 1013.82 1011.97 1011.56 1011.61 1011.50 1011.58 1011.78 1012.05 1013.08
1015.87 1016.22 1016.30 1016.39 1016.24 1016.26 1015.48 1015.28 1016.04 1016.61 1015.19 1011.15 1010.71 1010.10 1010.71 1011.05 1009.99 1009.74 1010.22 1010.89 1011.56 1012.30 1013.23 1013.16 1013.16 1013.29 1013.60 1013.54 1014.14 1014.43 1014.79 1015.11 1015.32 1015.73 1015.97 1015.73 1016.17 1013.31 1013.28 1013.49 1013.70 1013.73 1013.85 1014.39 1014.89
1015.41 1015.84 1016.14 1016.21 1016.17 1015.38 1015.41 1015.54 1016.05 1016.92 1012.97 1010.36 1009.99 1010.33 1011.01 1010.49 1009.79 1010.09 1010.89 1011.05 1011.52 1012.58 1012.81 1012.82 1012.71 1012.96 1012.94 1013.27 1013.69 1014.46 1015.07 1015.63 1016.12 1016.45 1016.43 1015.50 1016.03 1015.48 1015.67 1016.14 1015.26 1015.13 1015.39 1015.67 1016.07
1014.97 1015.28 1015.90 1015.41 1015.30 1014.88 1015.51 1015.89 1016.27 1015.02 1011.35 1010.13 1009.74 1010.00 1009.91 1010.11 1009.87 1009.75 1010.67 1011.29 1011.71 1012.65 1012.58 1012.48 1012.43 1012.46 1012.60 1013.45 1014.21 1014.57 1015.23 1016.08 1016.89 1017.27 1016.57 1015.88 1016.52 1016.81 1017.26 1017.42 1016.73 1017.22 1017.79 1018.08 1018.28
1014.62 1014.79 1014.61 1014.69 1014.65 1014.70 1015.48 1015.83 1014.91 1011.73 1011.02 1009.78 1009.10 1009.51 1009.68 1009.61 1009.80 1009.85 1010.50 1011.20 1011.26 1011.47 1011.97 1012.14 1012.07 1011.97 1011.93 1012.03 1013.17 1014.24 1014.84 1015.60 1015.99 1016.67 1016.69 1016.23 1016.54 1017.12 1017.75 1018.19 1017.96 1018.50 1018.93 1019.36 1019.67
1014.58 1014.46 1014.13 1013.90 1014.14 1014.62 1015.11 1014.76 1012.35 1010.95 1010.11 1009.63 1009.38 1009.59 1009.73 1009.34 1009.49 1009.91 1010.27 1010.33 1010.24 1010.72 1011.42 1011.72 1011.67 1011.28 1011.39 1011.62 1012.35 1014.06 1014.63 1014.88 1015.68 1016.37 1016.82 1016.26 1016.84 1017.63 1017.86 1018.38 1018.62 1018.80 1019.09 1019.22 1019.65
1014.23 1014.46 1013.76 1013.35 1013.67 1014.52 1014.51 1013.01 1011.33 1010.21 1009.68 1009.48 1009.43 1009.51 1009.37 1009.33 1009.50 1009.69 1009.73 1009.27 1009.75 1009.87 1010.13 1010.88 1011.41 1011.23 1011.31 1011.66 1012.36 1012.69 1013.60 1014.83 1015.70 1016.32 1016.53 1015.73 1016.01 1016.45 1017.49 1018.27 1018.77 1019.20 1019.66 1019.97 1019.92
1014.02 1014.24 1013.50 1013.41 1013.51 1013.75 1012.91 1012.08 1010.92 1010.08 1009.96 1010.09 1009.82 1009.66 1009.55 1009.42 1009.29 1009.32 1009.22 1009.12 1009.03 1009.55 1009.88 1010.70 1011.46 1011.67 1011.62 1011.37 1011.82 1013.05 1013.36 1014.00 1014.59 1015.35 1015.67 1015.76 1015.36 1015.38 1016.43 1017.50 1018.22 1019.00 1019.55 1020.27 1020.55
1013.48 1013.67 1013.27 1013.34 1013.50 1012.50 1012.27 1011.79 1010.88 1010.09 1010.22 1010.10 1009.92 1009.72 1009.77 1009.80 1009.79 1009.73 1009.33 1009.16 1009.15 1009.36 1010.26 1010.68 1011.48 1011.71 1011.56 1011.18 1011.29 1011.44 1011.61 1012.73 1013.56 1014.72 1014.99 1015.28 1014.82 1014.80 1015.88 1016.84 1017.78 1018.62 1019.59 1020.15 1020.71
1012.89 1013.26 1013.26 1013.36 1012.81 1012.41 1012.01 1011.27 1011.05 1010.45 1010.28 1010.09 1009.93 1009.85 1009.93 1010.07 1010.35 1009.60 1009.34 1009.41 1009.40 1009.73 1010.16 1010.84 1011.95 1012.39 1012.05 1011.94 1011.72 1011.70 1011.24 1011.43 1012.26 1013.13 1013.93 1014.76 1014.37 1014.87 1015.58 1016.64 1017.75 1018.75 1019.63 1020.32 1020.67
1012.72 1013.22 1013.38 1013.03 1012.65 1012.27 1012.01 1011.50 1011.08 1010.65 1010.51 1010.29 1009.83 1009.92 1010.10 1010.18 1010.15 1009.70 1009.73 1009.64 1009.64 1009.90 1010.28 1010.71 1012.01 1012.02 1011.98 1011.66 1011.51 1011.34 1010.96 1010.65 1011.38 1012.53 1012.81 1013.29 1013.73 1014.57 1015.51 1016.82 1018.20 1019.42 1020.29 1020.70 1021.10
1011.72 1011.86 1011.94 1012.41 1011.92 1012.02 1011.97 1011.41 1011.32 1010.69 1010.32 1010.13 1009.99 1009.96 1010.26 1010.49 1010.35 1010.11 1009.98 1010.11 1010.20 1010.25 1010.86 1011.37 1012.08 1012.47 1012.04 1011.79 1011.59 1011.40 1010.98 1010.79 1010.67 1011.19 1012.35 1012.56 1013.36 1014.05 1015.35 1016.93 1018.61 1019.93 1020.87 1021.30 1021.70
1011.13 1011.51 1011.87 1011.71 1011.56 1012.03 1011.89 1011.03 1010.76 1010.36 1010.22 1010.15 1010.21 1009.97 1010.15 1010.36 1010.22 1009.93 1009.61 1009.84 1010.16 1010.96 1011.34 1011.67 1012.33 1012.74 1012.42 1011.92 1011.51 1011.24 1011.00 1010.47 1010.26 1010.90 1011.81 1012.59 1014.03 1014.87 1016.36 1017.64 1019.16 1020.31 1021.17 1021.87 1022.35
1010.75 1010.98 1011.14 1010.97 1011.13 1011.36 1010.75 1010.26 1010.16 1010.63 1010.21 1009.78 1010.02 1010.09 1009.79 1009.43 1010.06 1010.16 1009.04 1008.94 1009.44 1010.37 1011.61 1012.22 1012.70 1013.24 1012.58 1012.07 1011.97 1011.30 1010.48 1010.50 1011.03 1011.69 1012.07 1013.13 1013.69 1015.54 1017.21 1018.36 1019.74 1020.80 1021.75 1022.62 1022.99
Wind_Speed
2 3 4 5 6 6 8 8 9 9 8 7 8 10 13 16 17 3 7 9 3 5 1 5 2 3 3 2 2 3 5 2 5 4 5 4 7 3 5 6 5 4 2 6 3
1 2 3 4 5 7 7 8 8 9 8 8 8 9 12 16 5 7 9 5 3 2 3 5 5 6 3 1 0 5 5 10 7 3 5 13 6 8 5 8 5 6 9 2 4
1 1 3 5 6 6 7 8 8 9 9 8 7 9 12 11 5 5 5 3 3 2 4 2 1 0 2 1 2 3 5 5 4 7 6 6 11 4 2 4 5 9 11 11 4
3 4 4 4 7 7 7 8 8 9 8 6 4 8 14 4 3 2 8 5 2 3 3 3 1 2 2 3 1 3 5 4 5 7 6 9 8 9 8 10 8 9 11 7 12
3 5 5 6 6 8 7 8 9 9 8 8 3 6 5 4 11 3 3 1 2 2 2 2 1 2 2 3 5 5 2 6 9 9 9 8 7 12 13 14 8 10 9 11 10
5 5 5 6 7 8 7 7 10 9 8 5 5 2 1 5 4 4 6 5 4 2 2 3 3 2 1 2 0 3 4 7 6 12 9 16 11 5 8 15 10 8 9 7 8
5 5 4 6 7 7 8 9 10 9 9 5 7 0 4 19 2 5 8 2 1 3 3 4 1 2 2 7 1 4 6 6 8 6 7 8 7 8 9 7 9 14 10 9 10
5 4 5 6 5 6 9 8 9 8 5 9 7 2 10 6 4 10 3 4 7 6 6 10 1 2 3 3 8 5 4 1 5 3 5 2 6 10 4 15 16 8 9 15 14
4 5 5 6 5 5 10 7 9 1 7 10 3 1 13 10 6 8 10 4 6 6 6 8 2 4 2 2 5 3 3 4 6 5 4 4 16 3 16 13 15 11 11 8 11
4 5 4 5 5 4 7 5 12 9 4 1 2 2 7 5 4 3 4 5 2 6 3 4 1 2 1 5 7 6 5 3 2 6 8 11 26 16 7 7 11 14 11 9 4
4 4 6 4 4 3 9 4 2 1 4 10 8 5 4 6 4 3 6 7 1 4 7 5 5 10 17 8 5 3 4 5 5 9 8 15 23 20 6 7 16 19 11 7 7
4 5 5 4 5 13 3 3 5 3 9 20 19 16 10 5 6 6 8 6 7 6 6 1 8 10 4 5 7 9 12 13 6 10 7 11 23 19 6 9 14 16 6 7 7
5 4 4 4 5 7 4 7 4 4 4 7 9 9 9 11 10 10 10 6 4 7 7 7 6 9 8 6 9 11 10 11 14 2 5 6 15 7 14 6 8 9 7 8 12
6 3 2 5 5 4 7 11 4 3 4 7 6 7 6 7 7 18 7 7 3 12 5 6 11 10 6 6 10 9 7 6 4 5 2 3 11 15 9 11 14 13 17 16 14
7 5 5 8 4 5 6 6 5 4 3 2 5 5 8 8 3 3 5 2 10 8 8 9 3 7 7 13 6 9 5 3 1 1 2 5 2 7 10 10 10 10 14 15 15
9 7 5 3 2 7 4 6 4 7 10 2 6 7 6 4 3 4 8 3 4 3 6 7 1 6 9 4 4 6 3 3 4 3 2 6 8 4 8 9 12 9 14 16 16
8 8 6 4 6 6 6 4 4 5 4 5 6 7 5 5 4 5 6 10 8 5 7 3 16 6 5 5 3 3 5 2 3 1 6 2 2 3 6 10 19 16 16 16 15
8 6 4 9 6 11 4 3 6 6 8 4 4 5 7 7 5 6 9 6 7 2 3 5 4 9 6 12 9 7 8 5 6 3 3 5 5 2 4 8 14 13 12 10 11
4 2 3 5 7 7 7 11 10 7 5 4 3 2 5 6 6 6 7 9 10 10 8 5 5 3 5 4 10 5 4 2 3 2 1 4 4 5 5 5 7 8 8 9 7
3 2 3 6 8 7 9 17 9 7 1 4 8 6 6 7 8 9 9 7 8 11 4 5 5 5 4 5 4 7 9 4 1 4 5 4 4 5 7 4 4 4 4 4 6
3 2 1 3 6 7 12 14 19 4 3 6 5 2 4 2 3 4 7 4 5 5 12 6 6 3 5 7 10 3 3 1 4 4 5 2 5 6 9 9 9 6 6 4 5
3 4 2 4 7 2 11 15 10 6 12 6 2 5 7 5 4 4 5 4 4 5 9 4 3 4 12 1 5 11 10 7 6 5 4 4 6 7 10 11 9 8 9 8 6
3 1 1 3 10 10 6 15 10 7 9 4 11 7 4 6 5 7 5 2 6 7 9 8 3 2 3 5 4 7 9 12 5 3 7 5 3 7 9 12 8 8 8 7 7
3 4 2 2 1 5 7 6 12 6 11 3 4 4 6 9 7 5 4 4 4 3 3 6 4 6 9 3 1 5 13 14 10 4 6 7 8 13 12 14 10 9 7 6 6
3 3 3 5 8 6 5 2 15 9 8 6 7 10 8 8 10 10 4 4 1 9 4 4 6 6 5 5 2 4 13 14 15 12 8 6 10 16 15 14 13 10 8 6 6
4 4 3 1 5 14 11 12 11 13 8 5 13 5 8 11 13 11 7 5 5 3 3 2 2 2 4 10 9 10 14 8 13 15 12 7 7 11 13 13 10 9 8 6 5
3 2 2 5 6 10 16 21 16 10 11 14 13 9 13 15 7 12 8 8 7 11 7 7 6 4 7 4 7 7 10 11 3 1 7 7 7 16 15 13 10 9 7 7 6
Wind_Direction
11 339 334 335 339 334 325 321 316 307 302 298 303 321 324 321 317 296 258 221 166 263 336 296 308 348 32 27 106 113 70 199 252 218 251 303 339 279 236 265 341 272 208 276 13
3 356 334 339 331 320 318 320 324 311 300 290 296 315 325 326 300 266 248 259 259 342 337 9 342 355 354 301 345 112 134 209 217 239 275 304 301 310 311 307 282 307 310 224 271
253 311 338 334 326 318 318 320 321 323 309 295 297 329 330 326 308 258 71 107 84 327 314 302 312 201 300 115 230 178 201 218 252 269 303 296 311 338 282 286 267 295 307 311 204
243 260 292 313 324 326 320 318 314 315 321 279 301 338 323 318 304 13 89 80 357 306 301 323 45 130 223 220 344 314 264 291 283 325 307 307 300 297 220 240 254 264 268 293 302
262 263 277 305 319 316 315 317 315 307 314 272 144 9 353 18 253 258 32 182 275 309 265 271 191 142 226 327 341 203 281 320 313 308 288 277 266 271 270 272 261 259 265 270 273
268 264 266 295 308 305 303 314 317 304 302 263 132 97 16 277 254 255 51 27 14 342 279 214 210 143 265 287 64 301 331 307 292 291 297 286 285 2 277 305 308 320 312 295 281
261 276 275 290 300 302 300 307 298 294 297 176 144 94 278 246 290 322 322 183 187 290 269 247 203 101 35 326 353 321 326 319 265 284 270 324 311 222 293 0 344 332 333 338 334
258 267 288 294 297 298 295 303 283 283 277 141 146 102 254 260 266 266 216 281 206 218 234 274 237 243 163 280 358 357 32 349 290 302 283 23 234 323 351 345 326 324 326 330 325
247 271 291 299 296 305 292 284 267 319 110 125 104 233 262 308 263 253 182 209 156 170 191 262 121 201 264 83 4 333 230 206 311 296 312 347 293 301 334 336 310 309 308 310 299
267 276 280 293 301 307 301 101 93 85 105 139 299 342 261 247 230 191 148 167 141 131 144 169 77 147 74 115 226 215 185 209 220 295 322 279 277 288 317 282 289 282 293 287 342
266 265 277 292 294 157 113 84 134 255 225 210 195 240 294 286 289 204 156 134 222 135 173 173 163 209 223 199 219 302 253 222 236 257 284 265 276 291 315 295 285 287 299 272 104
257 264 286 299 278 177 122 192 215 154 285 225 243 242 265 72 320 291 127 154 165 181 132 113 241 234 216 197 244 268 282 284 254 251 234 279 282 297 324 267 270 280 266 168 126
248 263 291 308 299 169 222 211 85 24 266 265 200 230 237 185 217 243 164 155 150 161 196 180 225 198 180 213 231 243 253 275 276 260 247 318 290 334 333 322 304 284 277 179 144
228 232 284 310 139 163 223 245 77 42 335 260 213 242 180 150 244 207 181 136 196 202 128 231 245 241 199 206 213 252 232 247 274 30 280 71 292 334 343 26 8 14 27 57 73
199 224 234 231 150 178 223 185 138 58 347 139 144 139 163 183 313 182 176 92 179 173 143 228 215 224 240 236 198 257 174 213 233 104 343 196 209 284 4 360 11 51 60 55 60
207 211 208 257 231 235 109 118 81 45 249 158 132 162 156 232 294 103 172 68 133 219 268 221 358 172 202 228 196 135 109 49 35 82 301 222 175 313 12 339 337 72 62 72 68
218 224 203 204 212 189 149 118 99 178 327 199 171 169 204 170 235 155 150 169 177 152 226 222 237 220 153 131 43 117 137 270 295 255 238 263 158 56 22 16 42 53 49 40 40
220 234 242 204 215 144 152 169 195 204 224 338 100 160 187 155 245 188 135 186 251 156 121 185 295 164 194 198 176 184 166 190 230 211 276 324 254 99 82 85 89 84 76 55 34
214 245 233 185 172 169 174 198 216 178 192 207 305 243 215 207 193 184 201 203 206 181 181 188 268 159 187 152 147 192 188 208 96 168 47 215 117 144 137 112 92 96 100 108 104
169 231 232 160 161 179 202 215 227 191 32 46 187 193 235 213 184 178 190 204 220 187 174 209 269 207 150 115 61 177 159 95 98 208 228 242 196 182 176 172 131 115 90 84 80
131 209 245 205 141 199 214 229 240 251 244 207 221 242 249 334 210 206 214 243 182 170 192 160 198 230 129 197 167 152 189 162 131 171 195 260 248 185 163 177 175 163 124 86 56
195 210 198 188 181 245 196 220 238 254 227 248 277 209 220 195 248 251 227 229 178 156 158 178 161 245 233 258 230 202 185 168 144 204 218 147 263 153 167 180 169 153 126 113 93
185 140 289 223 204 222 216 236 239 254 208 214 227 195 195 205 231 204 228 128 163 175 166 179 182 201 292 335 327 257 219 197 122 126 195 169 226 162 192 165 158 118 100 90 71
140 181 239 185 175 216 198 215 228 228 254 258 250 202 200 232 223 229 226 218 177 158 170 115 160 194 224 203 291 213 223 195 178 180 170 217 155 180 147 141 126 111 101 84 62
180 205 189 183 206 203 188 256 220 225 219 194 247 230 216 231 238 233 194 166 131 160 129 165 186 209 241 224 209 279 255 235 206 206 194 195 178 172 164 147 136 131 116 95 69
162 157 178 194 167 198 210 225 229 226 228 217 227 225 219 234 220 245 158 175 182 190 137 180 189 154 270 229 221 243 236 242 224 214 227 131 126 129 120 123 131 136 123 110 99
155 201 145 179 173 183 213 221 234 230 258 239 226 224 229 237 221 297 233 177 179 160 180 155 144 166 251 203 238 245 239 221 124 11 142 173 170 148 152 142 139 131 134 130 129